Temp
14 16 17 18 18 17 17 18 18 18 18 17 18 18 18 17 16 15 14 16 15 14 13 13 12 12 11 10 10 10 8 9 8 9 8 9 9 9 9 8 8 8 8 8
15 16 17 16 16 16 17 18 18 18 17 17 18 18 18 18 16 16 15 13 14 12 12 13 12 12 11 11 10 10 9 9 9 8 8 9 9 9 9 9 9 8 8 8
16 17 16 15 16 16 17 18 18 18 18 17 18 18 18 18 16 16 15 15 12 12 11 13 12 12 11 12 11 10 9 9 8 8 9 9 9 9 9 9 9 9 9 8
16 16 15 15 16 16 18 17 17 17 17 19 18 20 19 18 18 16 15 14 14 12 11 14 13 12 11 11 10 10 9 9 9 9 9 9 9 9 9 9 9 9 9 9
16 15 15 15 16 16 17 16 16 17 17 18 19 19 20 18 18 18 16 15 14 12 12 14 13 13 11 11 10 10 10 10 9 9 9 9 9 9 9 9 9 9 9 9
16 15 15 16 16 15 16 16 16 17 18 19 19 19 20 19 18 17 16 14 14 12 13 13 13 13 12 11 11 10 10 10 9 9 9 9 9 9 9 9 9 9 9 9
15 15 15 15 16 15 15 16 18 19 20 21 19 19 19 18 17 16 16 15 13 13 14 13 13 13 12 11 11 10 10 10 10 9 9 9 9 9 9 9 9 9 9 8
17 17 16 15 15 16 16 17 18 19 20 19 18 19 18 17 17 16 14 14 13 13 13 14 13 12 12 11 11 11 10 10 9 9 9 9 9 9 10 9 9 9 9 9
17 17 16 15 15 15 16 16 17 18 19 19 20 20 18 17 17 16 15 15 13 12 12 12 13 12 12 12 11 11 10 10 10 9 9 9 9 10 10 9 9 9 9 9
16 16 16 15 15 15 16 17 17 17 18 18 20 19 19 17 17 16 16 15 15 14 13 13 12 12 11 11 11 10 10 10 9 9 9 9 9 10 9 9 9 9 8 8
15 15 16 15 15 16 16 15 16 18 18 19 19 17 16 17 17 16 15 15 15 15 13 13 12 12 11 10 10 10 10 9 9 9 9 9 10 9 9 9 9 9 8 8
15 15 16 16 17 16 16 17 17 17 18 18 18 19 17 17 16 16 15 16 15 14 12 13 12 12 10 10 10 9 9 9 9 9 9 9 9 9 9 9 9 9 8 8
15 15 16 16 17 16 15 16 16 16 16 17 17 18 17 16 16 16 15 15 15 14 14 13 12 11 10 9 9 9 9 9 9 9 9 9 9 9 9 9 9 9 8 8
14 15 15 17 15 16 16 16 16 16 17 17 18 18 17 17 16 15 14 16 15 15 14 12 12 11 10 9 8 7 8 9 9 9 9 9 9 9 8 8 8 9 8 8
13 13 15 15 16 16 17 17 16 16 16 17 18 13 15 15 15 14 14 15 15 14 14 13 12 11 10 9 8 8 7 9 9 9 9 9 9 9 8 8 8 8 8 8
12 13 13 15 16 16 16 16 16 16 16 16 17 17 16 14 15 14 14 15 15 14 13 12 12 11 10 10 9 9 9 9 9 9 9 9 9 8 8 8 8 8 8 7
12 12 13 14 15 16 16 16 16 16 16 16 17 16 14 14 15 15 14 15 14 14 12 12 12 11 11 10 10 9 9 9 9 9 9 8 8 8 8 8 8 7 7 7
10 11 12 14 15 16 16 16 16 16 16 16 16 16 13 14 15 14 14 13 13 12 12 12 11 11 11 10 9 9 9 9 9 9 9 9 9 9 8 8 8 7 7 6
9 10 12 13 14 15 15 15 15 15 15 15 15 15 14 13 14 14 14 13 12 12 12 11 8 10 11 9 10 9 9 9 9 9 8 9 9 9 7 8 8 7 6 6
10 9 10 12 13 14 15 15 14 13 14 14 14 14 14 13 14 13 13 13 13 12 12 12 12 12 11 10 9 9 9 9 8 8 8 9 8 8 8 7 7 7 6 5
10 10 10 11 12 13 13 12 12 13 13 12 12 11 11 12 13 13 13 13 13 12 11 11 11 11 10 9 9 9 9 9 9 8 8 8 8 8 8 7 7 7 6 5
10 10 10 11 12 12 12 11 12 12 12 12 12 12 12 12 12 12 12 12 12 11 11 11 11 11 10 9 9 9 9 9 8 8 8 8 9 8 8 7 7 7 5 5
10 10 11 12 12 11 11 10 11 11 11 11 11 11 11 11 11 11 11 11 12 11 11 11 10 10 10 9 9 9 9 9 8 8 9 8 9 8 8 7 7 7 5 5
9 9 9 10 10 9 9 10 10 10 11 10 10 10 10 11 11 11 10 10 10 10 10 10 10 9 9 9 9 9 8 8 8 8 8 8 8 8 7 7 6 6 5 4
8 7 9 9 9 8 7 9 10 10 10 10 10 10 10 10 10 10 10 10 10 10 10 10 10 9 8 8 9 8 8 7 8 8 8 8 8 7 7 6 5 5 5 4
7 7 7 9 6 7 6 8 9 9 9 10 10 10 10 9 9 9 10 9 9 9 9 9 8 8 8 8 7 7 7 7 7 8 8 7 7 6 6 4 4 4 4 4
Height
3187 3190 3188 3188 3187 3186 3188 3188 3187 3188 3189 3191 3188 3189 3189 3188 3189 3189 3188 3184 3184 3185 3185 3184 3185 3185 3183 3181 3180 3182 3173 3159 3171 3161 3181 3183 3183 3184 3184 3184 3183 3182 3180 3178
3189 3187 3186 3186 3187 3188 3188 3188 3187 3187 3188 3189 3187 3186 3186 3186 3187 3188 3187 3184 3183 3183 3182 3183 3184 3183 3181 3178 3178 3178 3180 3178 3174 3165 3180 3182 3182 3183 3183 3181 3180 3177 3175 3173
3185 3184 3183 3186 3187 3187 3187 3186 3185 3187 3186 3185 3183 3181 3181 3182 3184 3184 3184 3185 3182 3183 3180 3180 3182 3181 3179 3177 3177 3178 3180 3180 3177 3177 3179 3181 3182 3181 3180 3178 3176 3172 3170 3168
3184 3184 3184 3185 3186 3187 3184 3183 3185 3186 3185 3179 3181 3177 3176 3179 3181 3181 3182 3181 3183 3180 3179 3178 3180 3179 3178 3176 3176 3177 3179 3178 3178 3178 3179 3181 3181 3180 3179 3178 3175 3172 3168 3164
3181 3181 3182 3183 3184 3185 3184 3184 3185 3184 3183 3180 3178 3178 3171 3175 3178 3179 3181 3180 3181 3179 3177 3178 3179 3178 3177 3175 3175 3176 3178 3177 3178 3178 3178 3179 3179 3179 3178 3176 3173 3170 3166 3162
3178 3179 3180 3181 3182 3183 3184 3184 3183 3182 3179 3174 3172 3174 3172 3172 3176 3178 3178 3179 3179 3178 3176 3177 3177 3177 3176 3175 3173 3174 3176 3175 3177 3178 3178 3179 3179 3178 3177 3175 3173 3169 3164 3160
3176 3177 3177 3178 3180 3181 3182 3182 3178 3174 3168 3163 3167 3172 3172 3173 3175 3177 3178 3178 3177 3176 3175 3175 3176 3175 3175 3174 3173 3173 3174 3175 3176 3177 3178 3179 3178 3177 3175 3174 3171 3168 3163 3159
3170 3170 3173 3175 3177 3179 3180 3180 3175 3167 3160 3163 3169 3166 3169 3172 3174 3174 3174 3175 3175 3174 3174 3174 3174 3174 3173 3173 3173 3172 3173 3174 3176 3177 3178 3178 3178 3177 3175 3173 3169 3165 3162 3159
3167 3168 3170 3173 3175 3177 3176 3177 3177 3174 3169 3165 3162 3162 3165 3168 3171 3172 3174 3173 3174 3174 3174 3173 3172 3172 3172 3172 3172 3173 3173 3174 3176 3177 3178 3178 3178 3178 3175 3172 3168 3165 3162 3158
3167 3167 3168 3171 3173 3173 3173 3175 3174 3173 3169 3164 3156 3157 3159 3165 3168 3168 3171 3172 3172 3172 3172 3172 3171 3171 3171 3171 3172 3172 3173 3174 3176 3177 3177 3178 3178 3177 3175 3170 3167 3164 3161 3158
3167 3169 3166 3169 3169 3168 3170 3171 3171 3167 3164 3160 3156 3159 3159 3166 3169 3168 3170 3170 3171 3171 3170 3170 3170 3170 3170 3170 3171 3172 3172 3174 3175 3177 3177 3178 3176 3176 3173 3170 3166 3163 3160 3158
3164 3165 3165 3164 3164 3165 3165 3166 3166 3165 3164 3161 3157 3156 3158 3163 3165 3164 3168 3168 3169 3169 3169 3169 3169 3168 3168 3169 3170 3171 3173 3174 3175 3176 3176 3176 3175 3174 3172 3169 3165 3162 3160 3158
3161 3162 3162 3162 3162 3162 3163 3163 3164 3164 3164 3160 3154 3152 3157 3160 3163 3162 3166 3166 3167 3167 3167 3168 3168 3168 3167 3168 3169 3172 3174 3173 3174 3174 3174 3174 3174 3172 3171 3169 3165 3162 3160 3159
3158 3159 3158 3152 3158 3158 3158 3160 3161 3162 3161 3159 3155 3154 3154 3155 3158 3160 3165 3164 3164 3164 3165 3166 3166 3166 3167 3168 3164 3167 3172 3171 3173 3173 3173 3173 3173 3171 3170 3168 3165 3163 3160 3159
3158 3158 3157 3155 3155 3156 3154 3154 3156 3158 3160 3157 3153 3161 3154 3150 3158 3159 3162 3162 3162 3162 3163 3164 3164 3164 3166 3166 3164 3169 3169 3169 3171 3172 3172 3172 3172 3171 3169 3167 3165 3164 3161 3159
3155 3155 3156 3152 3152 3153 3153 3154 3155 3154 3156 3155 3152 3154 3155 3155 3154 3158 3160 3161 3160 3161 3162 3162 3162 3163 3165 3165 3166 3167 3167 3168 3170 3170 3171 3171 3170 3169 3168 3167 3165 3163 3161 3159
3153 3153 3153 3151 3150 3149 3151 3151 3151 3152 3153 3153 3153 3153 3152 3153 3153 3157 3159 3159 3159 3159 3160 3161 3161 3162 3163 3164 3165 3166 3167 3168 3169 3170 3170 3169 3168 3167 3166 3165 3164 3162 3161 3159
3150 3151 3151 3149 3148 3144 3144 3146 3147 3148 3149 3151 3153 3155 3156 3154 3155 3157 3157 3157 3157 3157 3157 3159 3159 3160 3161 3163 3164 3165 3166 3167 3167 3168 3167 3167 3166 3166 3164 3163 3162 3160 3159 3157
3147 3149 3149 3148 3145 3143 3142 3146 3148 3149 3150 3151 3151 3152 3153 3153 3154 3155 3156 3155 3156 3155 3154 3156 3158 3157 3159 3160 3162 3164 3165 3165 3165 3165 3164 3164 3163 3163 3161 3160 3159 3157 3156 3154
3144 3144 3148 3146 3143 3141 3142 3142 3142 3147 3149 3150 3147 3150 3151 3152 3154 3151 3152 3151 3151 3151 3150 3151 3153 3153 3157 3160 3161 3162 3163 3164 3163 3163 3163 3162 3161 3160 3158 3156 3155 3154 3153 3151
3137 3139 3141 3143 3141 3141 3142 3141 3142 3146 3149 3143 3144 3145 3146 3148 3149 3149 3148 3148 3147 3146 3147 3148 3150 3152 3154 3155 3157 3159 3160 3159 3160 3160 3159 3158 3158 3156 3154 3152 3150 3149 3148 3148
3132 3135 3136 3140 3139 3138 3139 3140 3143 3141 3138 3140 3141 3142 3142 3143 3143 3144 3144 3144 3142 3142 3143 3144 3145 3148 3150 3152 3154 3154 3155 3155 3155 3155 3155 3154 3154 3152 3150 3148 3146 3144 3143 3144
3128 3130 3131 3134 3135 3132 3133 3133 3135 3137 3137 3139 3139 3139 3139 3140 3141 3141 3141 3140 3139 3139 3140 3141 3142 3144 3147 3148 3149 3149 3150 3151 3151 3150 3150 3151 3149 3147 3145 3143 3141 3138 3139 3138
3123 3125 3127 3130 3130 3129 3128 3129 3131 3133 3134 3135 3136 3137 3137 3137 3138 3138 3139 3139 3138 3138 3138 3138 3139 3140 3142 3144 3144 3145 3145 3145 3145 3145 3145 3145 3143 3141 3139 3137 3135 3135 3135 3134
3119 3120 3124 3126 3126 3126 3126 3125 3127 3129 3130 3131 3132 3133 3133 3134 3135 3136 3136 3136 3136 3136 3136 3136 3136 3137 3138 3139 3140 3140 3140 3141 3141 3140 3140 3139 3138 3136 3134 3132 3132 3131 3131 3132
3116 3116 3120 3121 3118 3122 3121 3122 3124 3125 3126 3128 3128 3128 3129 3130 3130 3131 3132 3131 3132 3132 3133 3133 3134 3134 3134 3134 3135 3135 3136 3136 3136 3136 3135 3134 3133 3131 3130 3130 3129 3129 3129 3128
Wind_Speed
7 7 12 12 10 9 7 7 8 7 9 7 7 8 8 6 5 8 9 10 10 10 16 17 14 12 15 16 20 16 23 9 15 12 1 6 8 11 13 15 18 21 24 23
7 10 8 10 7 7 8 9 11 8 9 9 10 11 9 8 8 9 10 13 9 10 16 14 14 15 17 17 18 20 18 20 27 5 5 7 7 11 13 16 17 19 19 20
13 3 9 7 9 9 10 12 9 10 6 12 12 17 11 9 6 9 9 12 12 13 15 13 12 16 18 16 11 15 17 18 19 3 3 6 9 10 13 16 20 22 21 18
13 12 7 9 11 10 12 10 10 9 11 14 4 16 9 7 6 7 6 9 11 11 15 12 9 14 17 13 8 9 13 12 6 4 3 5 10 10 11 13 17 19 19 21
7 9 13 10 10 9 6 6 7 9 12 13 11 9 9 7 4 5 4 7 9 13 13 10 8 11 13 12 8 8 9 7 9 6 4 7 9 10 13 16 18 20 21 21
13 8 8 11 11 11 8 7 9 10 13 17 15 9 10 4 3 3 4 4 8 11 12 9 9 10 11 12 9 7 6 4 8 7 5 8 8 11 15 17 18 20 21 22
14 15 9 10 11 10 11 10 14 13 14 11 7 6 12 9 5 5 5 6 7 12 10 8 8 11 11 11 11 7 7 3 3 2 6 6 7 12 15 18 18 19 19 20
14 17 18 12 15 12 14 15 18 13 9 4 6 4 1 2 7 5 3 4 6 8 8 9 8 9 11 10 9 8 7 5 5 5 7 6 7 12 16 18 18 19 18 18
11 9 8 10 13 15 16 17 17 21 22 18 20 13 5 5 4 4 3 0 6 9 10 8 10 8 10 9 7 8 7 8 8 8 6 5 7 12 16 18 19 18 17 17
6 8 7 9 10 13 21 11 14 16 14 15 19 6 8 7 2 9 7 3 7 6 9 10 10 9 11 9 7 8 6 8 9 9 7 6 7 11 14 18 19 17 16 15
16 10 10 9 12 14 10 18 18 20 16 12 8 6 16 3 2 2 3 6 8 7 11 11 7 9 12 11 8 6 6 9 11 12 10 6 7 10 14 17 19 17 14 13
19 12 17 14 8 11 9 14 15 17 17 18 18 13 9 8 3 3 6 5 6 7 10 12 9 9 14 12 9 5 6 9 11 13 10 5 6 9 12 17 20 18 12 10
18 16 17 16 16 17 17 16 17 15 17 19 18 2 5 4 3 2 6 9 7 9 9 9 8 7 11 16 12 4 10 9 7 8 7 3 5 7 11 15 19 19 14 11
15 15 17 22 4 12 13 15 16 16 20 18 23 21 11 3 4 2 7 9 11 10 10 8 8 3 4 18 17 7 10 8 6 5 5 5 7 9 11 14 17 18 14 11
15 16 17 21 17 12 12 11 14 17 19 24 19 10 16 8 6 3 6 11 13 11 11 7 7 4 3 6 8 10 6 5 6 7 6 7 9 11 12 13 15 16 13 10
15 15 17 20 19 15 16 16 17 13 17 19 22 16 7 3 4 2 6 11 12 12 11 10 8 8 8 7 8 6 2 6 4 3 5 6 9 12 13 14 14 15 14 8
15 15 15 19 20 19 18 18 17 17 17 19 16 11 5 3 2 6 10 13 13 12 13 13 10 11 10 8 6 5 4 4 3 3 5 6 10 12 15 16 13 15 15 13
10 14 16 19 20 15 17 10 10 10 10 15 15 11 6 6 7 9 12 12 15 13 17 14 15 16 14 12 11 8 7 6 5 6 8 11 14 16 17 17 15 16 17 16
17 15 17 22 21 20 14 12 13 14 16 15 17 13 8 8 10 13 13 13 10 15 21 17 17 20 20 18 14 11 11 9 10 10 9 14 17 17 18 19 18 18 18 18
22 20 19 17 18 20 19 11 10 11 15 15 11 11 12 9 11 12 13 17 16 15 21 21 16 18 17 17 16 16 14 16 15 14 13 15 18 19 19 22 20 20 20 18
27 26 26 27 25 23 19 9 6 14 9 9 8 11 10 11 16 16 17 22 21 19 18 17 15 18 20 20 21 18 17 16 15 16 16 18 21 21 20 21 23 23 20 20
21 27 26 25 26 26 19 12 13 14 15 13 12 10 11 11 11 13 21 22 17 16 18 17 16 18 19 17 18 19 19 20 19 14 16 20 23 22 22 23 23 26 18 21
13 22 24 21 24 20 14 17 15 21 16 9 9 8 11 13 14 15 17 16 16 15 15 12 13 18 20 19 20 21 21 23 22 21 25 29 26 24 25 25 24 20 22 18
21 16 15 9 13 6 11 15 16 20 21 18 17 16 15 14 12 14 16 13 8 10 13 15 17 20 21 19 19 19 20 20 18 17 18 23 24 24 23 22 19 18 15 15
3 13 20 20 13 6 4 16 20 21 20 18 16 15 16 17 17 20 22 17 16 17 18 19 20 20 18 20 20 19 18 18 16 16 20 24 22 20 18 15 14 15 17 22
14 16 12 15 14 14 14 16 16 18 21 23 26 26 24 23 22 22 21 18 17 16 15 16 17 18 20 22 23 22 18 15 17 19 21 20 18 15 12 10 13 14 13 16
Wind_Direction
224 216 222 227 230 269 260 272 270 259 241 256 269 281 282 269 253 240 227 267 268 244 244 249 263 293 313 294 260 243 239 242 284 213 280 301 304 315 304 304 304 300 295 290
225 224 229 224 244 249 248 251 253 250 250 256 269 279 278 268 251 255 249 244 263 238 239 249 257 282 306 301 259 248 258 301 312 169 209 296 294 298 311 313 316 314 304 297
223 183 218 237 240 243 246 248 256 257 262 276 265 276 243 244 244 249 242 241 245 215 240 250 258 274 305 307 274 252 264 300 304 221 233 288 303 315 324 336 335 333 331 319
237 239 240 234 234 239 262 231 247 258 271 280 223 293 205 214 268 247 253 239 222 221 233 265 258 279 300 307 278 262 268 290 228 184 212 298 327 322 330 335 338 333 331 331
235 227 230 226 224 230 259 247 248 260 268 270 273 249 264 222 263 191 281 244 218 219 233 257 264 278 294 301 281 258 261 275 220 221 285 313 322 327 336 341 340 337 337 340
228 230 221 228 228 227 239 257 256 259 260 258 248 263 284 32 48 309 280 252 217 208 232 243 272 287 290 291 284 271 270 238 220 220 277 313 326 338 338 337 335 335 341 345
229 231 226 205 214 219 221 243 248 224 223 243 144 245 292 303 293 271 251 269 216 196 239 249 271 290 285 289 289 272 265 195 190 255 296 309 328 338 339 337 338 339 347 349
214 213 218 226 214 217 229 243 263 292 285 55 185 281 60 231 284 275 291 227 201 197 231 259 293 298 283 292 285 265 253 248 261 260 285 309 331 340 338 340 342 346 345 350
218 227 184 212 228 224 246 245 254 272 272 271 281 269 259 207 292 230 182 91 179 190 198 231 279 283 270 281 277 267 250 255 255 271 285 296 329 337 341 344 346 344 347 352
250 243 224 214 216 232 230 248 248 239 265 281 267 269 227 146 114 166 253 324 313 257 220 233 262 265 257 260 256 262 249 252 258 270 269 272 320 337 344 355 350 344 350 356
220 236 198 218 227 232 229 237 245 266 276 284 277 172 351 27 164 149 240 254 291 275 229 236 256 255 244 239 232 238 240 252 263 266 243 257 321 343 355 357 356 351 351 0
214 228 243 232 245 227 241 240 231 245 237 258 270 280 171 184 220 106 209 280 288 245 228 251 280 294 241 224 202 200 257 240 248 239 229 262 323 341 354 1 2 357 353 357
212 223 238 242 236 241 239 240 242 248 260 271 278 344 255 285 241 132 191 263 289 253 261 254 287 289 240 212 187 246 256 221 242 214 212 247 300 336 345 355 3 2 355 351
190 220 234 245 280 282 212 236 234 233 244 244 245 261 200 253 143 261 189 316 295 250 254 252 282 265 266 228 192 208 272 215 221 212 239 280 300 319 340 352 360 360 358 347
212 230 240 254 262 253 250 232 225 236 243 251 258 233 350 137 212 155 204 311 312 243 243 244 267 205 174 195 165 210 228 240 234 241 267 292 303 319 333 346 351 356 358 351
218 236 241 258 249 247 252 244 251 248 244 249 262 289 267 111 283 354 323 314 316 239 229 245 245 208 204 193 203 209 200 209 216 261 275 302 316 323 326 328 337 345 351 344
221 229 235 245 236 240 237 242 244 242 247 244 257 281 352 353 276 333 347 333 326 247 219 236 239 219 208 222 219 218 211 211 219 261 286 318 322 328 318 319 324 330 342 337
213 227 236 252 246 240 244 245 238 252 258 246 249 255 225 271 264 288 324 325 318 248 230 227 237 220 214 215 205 206 217 227 247 272 306 316 317 321 308 308 311 318 323 330
230 226 241 246 248 257 249 241 244 247 256 252 251 255 268 266 273 289 297 298 285 268 239 223 219 224 218 212 217 221 236 251 263 275 296 310 313 313 301 299 301 304 308 317
227 232 228 242 246 252 252 267 204 230 267 256 238 237 249 254 268 261 291 293 290 291 261 241 254 244 228 228 230 241 253 272 273 283 297 305 305 305 295 291 291 293 292 301
215 223 227 236 249 251 250 258 225 229 242 233 220 212 218 234 249 270 287 293 284 276 237 235 240 232 225 231 235 243 255 265 268 280 295 303 303 296 288 283 283 285 286 286
218 219 227 233 243 246 233 239 246 240 243 250 244 229 228 233 245 271 297 292 272 242 226 232 238 230 229 233 237 244 252 254 261 275 295 304 306 290 284 282 282 284 278 260
232 217 230 230 237 228 217 220 228 232 247 231 229 251 271 283 297 305 296 280 263 236 231 228 222 221 223 231 240 248 256 261 263 275 283 291 299 288 283 283 280 272 271 250
221 233 231 240 237 246 231 232 233 231 240 253 262 275 270 268 275 285 299 281 242 229 225 223 218 218 221 227 240 262 268 265 268 276 287 291 294 289 286 285 276 258 254 261
215 210 222 230 246 252 240 241 244 243 252 256 257 262 267 274 275 276 280 276 269 256 254 246 240 243 243 246 259 273 270 267 275 286 293 295 293 291 289 281 262 254 251 281
246 235 220 229 226 215 234 238 238 245 249 255 264 267 270 269 267 263 267 267 267 259 252 255 259 262 265 264 262 266 264 267 278 286 286 289 288 282 286 275 283 273 276 286